Lapse_Rate
6.5 6.5 6.5 6.5 6.5 6.5 6.5 6.5 6.5 6.5 6.5 6.5 6.5 6.5 6.5 6.2 5.4 5.4 4.9 5.1 3.6 1.2 0.1 -0.4 -0.5 -1.5 -0.9 -0.8 -0.1 0.5 1.6 1.8 2.5 3.3 3.7 3.8 3.9 3.6 3.9 3.8 3.8 3.7 4.2 3.8
6.5 6.5 6.5 6.5 6.5 6.5 6.5 6.5 6.5 6.5 6.5 6.5 6.5 6.5 6.5 6.5 6.5 6.3 5.2 4.6 3.2 1.3 0.7 0.2 -0.9 -2.2 -2.9 -2.0 -1.5 -0.5 0.2 1.1 1.1 1.8 2.4 2.7 3.2 2.8 3.1 3.1 3.4 3.7 4.2 4.0
6.5 6.5 6.5 6.5 6.5 6.5 6.5 6.5 6.5 6.5 6.5 6.5 6.5 6.5 6.5 6.5 6.7 6.7 5.9 4.7 3.9 3.1 1.1 0.7 -0.5 -2.4 -3.1 -3.6 -2.6 -0.8 -0.4 0.2 0.6 1.8 2.0 2.2 2.6 2.4 2.3 3.2 3.2 3.2 3.5 3.7
6.5 6.5 6.5 6.5 6.5 6.5 6.5 6.5 6.5 6.5 6.5 6.5 6.5 6.5 6.5 6.5 6.5 6.5 6.6 4.2 4.5 3.9 2.8 1.4 0.1 -1.2 -1.8 -3.3 -2.5 -1.7 -1.6 -1.2 -0.5 -0.1 1.8 3.0 4.0 4.0 3.5 3.0 2.8 2.3 2.9 2.9
6.5 6.5 6.5 6.5 6.5 6.5 6.5 6.5 6.5 6.5 6.5 6.5 6.5 6.5 6.5 6.5 6.5 6.5 6.5 6.6 5.1 4.3 3.3 1.9 0.6 0.2 -1.1 -1.8 -2.1 -2.4 -2.1 -2.8 -2.4 -1.5 -0.1 1.6 2.2 2.2 1.7 2.7 3.8 3.5 2.6 2.8
6.5 6.4 6.5 6.5 6.5 6.5 6.5 6.5 6.5 6.5 6.5 6.5 6.5 6.5 6.5 6.5 6.5 6.5 6.5 6.6 5.7 5.3 4.4 3.5 2.2 1.7 0.0 -1.0 -1.7 -2.0 -2.0 -2.9 -3.2 -2.2 -1.3 0.1 1.5 1.7 1.9 2.0 2.3 2.5 2.8 3.0
6.5 6.5 6.5 6.6 6.5 6.5 6.5 6.5 6.5 6.5 6.5 6.5 6.5 6.5 6.5 6.5 6.5 6.5 6.5 6.8 5.8 4.7 4.3 3.5 2.0 1.3 1.0 -0.3 -1.2 -1.0 -2.2 -2.7 -2.9 -2.9 -1.3 0.4 0.6 1.2 1.8 2.0 2.1 2.1 2.2 2.4
6.5 6.5 6.5 6.5 6.5 6.5 6.5 6.5 6.5 6.5 6.5 6.5 6.5 6.5 6.5 6.5 6.6 6.9 6.9 6.9 5.7 4.6 4.6 3.7 3.2 2.5 1.6 0.9 -0.4 -1.2 -1.3 -1.8 -2.1 -2.6 -1.6 -0.4 0.6 2.4 2.5 1.9 2.2 2.5 2.9 2.8
6.5 6.5 6.5 6.5 6.5 6.5 6.5 6.5 6.5 6.5 6.5 6.5 6.5 6.5 6.5 6.5 6.5 6.6 6.7 6.6 6.2 5.5 4.7 4.2 3.9 3.1 2.5 1.8 0.9 -0.1 -0.8 -1.2 -1.6 -1.9 -2.1 -0.8 0.0 0.6 0.7 3.3 2.9 2.4 2.9 3.4
6.5 6.5 6.5 6.5 6.5 6.5 6.5 6.5 6.5 6.5 6.5 6.5 6.5 6.5 6.5 6.5 6.5 6.5 6.6 6.6 6.2 5.6 4.8 4.5 4.0 3.3 3.0 2.3 1.8 1.3 0.6 -0.2 -0.8 -1.2 -1.2 -0.8 -0.4 0.6 1.2 1.6 3.1 3.1 2.4 3.0
6.5 6.5 6.5 6.5 6.5 6.5 6.5 6.5 6.5 6.5 6.5 6.5 6.5 6.5 6.5 6.5 6.5 6.5 6.6 7.2 6.8 6.2 5.4 4.9 4.5 3.9 3.4 2.8 1.9 1.2 0.7 0.8 0.0 -0.4 -0.6 -0.4 -0.1 1.1 1.8 2.4 3.3 3.6 4.0 3.1
6.5 6.5 6.5 6.5 6.5 6.5 6.5 6.5 6.5 6.5 6.5 6.5 6.5 6.5 6.5 6.5 6.6 6.8 6.9 7.4 7.6 7.2 6.1 5.3 4.5 4.1 3.4 2.8 2.1 1.4 1.0 1.0 1.4 1.3 0.5 0.3 0.2 0.3 0.6 1.5 3.0 4.1 4.1 3.7
6.5 6.5 6.5 6.5 6.5 6.5 6.5 6.5 6.5 6.5 6.5 6.5 6.5 6.5 6.5 6.6 6.6 6.9 6.9 7.2 7.3 7.9 7.5 5.8 4.6 4.1 3.6 3.3 2.7 2.2 1.4 0.6 1.0 1.4 2.2 2.7 1.9 1.1 0.4 0.7 2.2 3.6 3.8 3.9
6.4 6.5 6.5 6.5 6.5 6.5 6.5 6.5 6.5 6.5 6.5 6.5 6.5 6.5 6.5 6.5 6.5 6.8 7.0 7.2 7.2 7.4 7.6 7.9 5.9 5.3 4.5 3.7 2.8 2.2 1.7 1.1 1.2 1.8 1.7 1.6 1.4 1.7 1.9 1.2 1.2 1.7 3.2 3.4
6.5 6.5 6.5 6.5 6.5 6.5 6.5 6.5 6.5 6.5 6.5 6.5 6.5 6.5 6.5 6.5 6.5 6.8 7.1 7.3 7.3 7.5 7.6 7.6 7.9 6.5 5.0 3.7 2.7 2.1 1.6 1.3 1.2 1.1 1.0 0.9 1.0 1.2 1.6 1.6 1.2 1.3 3.2 2.9
6.5 6.5 6.5 6.5 6.5 6.5 6.5 6.5 6.5 6.5 6.5 6.5 6.5 6.5 6.5 6.9 7.0 7.0 7.1 7.3 7.3 7.5 7.7 7.8 7.4 7.4 5.9 4.5 3.3 2.4 1.5 1.1 0.9 0.5 0.2 0.2 0.3 0.2 0.7 1.0 1.5 2.2 2.4 3.0
6.5 6.5 6.5 6.5 6.5 6.5 6.5 6.5 6.5 6.5 6.5 6.5 6.5 6.5 6.6 6.5 6.7 6.9 7.1 7.3 7.3 7.5 7.7 7.8 7.2 7.2 6.2 4.9 4.1 2.0 1.3 1.4 0.9 0.3 -0.1 -0.4 -0.5 -0.3 -0.3 0.3 1.2 1.9 1.7 2.4
6.5 6.5 6.5 6.5 6.5 6.5 6.5 6.5 6.5 6.5 6.5 6.5 6.5 6.5 6.6 6.8 7.1 7.1 7.0 7.2 7.2 7.3 7.2 7.5 6.7 6.7 5.8 4.8 3.7 2.9 2.6 1.6 1.1 0.5 -0.0 -0.3 -1.0 -1.1 -0.3 0.1 0.3 0.7 1.3 1.7
6.3 6.5 6.5 6.5 6.5 6.5 6.5 6.5 6.5 6.5 6.5 6.5 6.5 6.6 6.9 7.2 7.1 7.0 7.9 7.9 7.0 7.2 7.0 6.9 6.8 6.8 6.2 5.3 4.4 3.1 2.5 1.8 1.2 0.4 -0.4 -0.6 -0.7 -0.9 -0.6 0.2 0.4 0.8 1.1 1.6
6.5 6.5 6.5 6.5 6.5 6.5 6.5 6.5 7.1 6.7 6.5 6.7 6.8 6.7 6.8 7.1 6.5 6.5 7.4 8.0 7.8 7.4 7.1 6.8 6.9 6.7 5.9 5.3 4.8 3.6 3.0 2.4 1.5 1.0 0.3 -0.2 -0.3 -0.8 -0.8 -0.2 0.9 1.0 1.8 2.2
6.5 6.5 6.5 6.5 6.5 6.5 6.5 6.3 6.8 6.5 6.5 7.0 7.1 7.1 7.0 6.5 7.0 7.3 8.2 8.2 7.7 7.4 6.6 7.1 6.6 6.1 5.8 5.2 4.5 4.6 4.1 2.9 2.6 2.0 1.4 1.1 0.7 -0.2 0.5 0.1 0.9 1.8 2.6 3.2
6.5 6.5 6.5 6.5 6.5 6.5 5.6 6.1 6.5 5.9 4.7 6.4 6.7 6.9 6.7 7.0 7.2 7.9 8.0 7.7 7.2 6.8 6.4 6.1 6.0 5.8 5.8 5.1 4.4 4.4 3.5 3.8 3.3 2.3 1.8 1.5 1.2 1.4 1.4 0.7 0.5 1.3 3.5 4.2
6.5 6.5 6.5 6.5 6.5 5.1 3.7 1.4 0.1 -2.5 1.4 2.9 3.4 5.7 5.8 5.5 6.4 6.7 6.8 6.4 6.4 6.4 6.5 6.5 5.6 5.4 5.2 5.0 4.9 4.0 3.9 3.7 2.8 2.1 1.7 1.7 1.7 1.7 1.9 1.2 1.2 1.2 2.6 4.5
6.5 4.4 6.5 6.5 5.9 2.9 1.7 -0.0 0.2 -2.1 -0.6 -1.2 -0.5 2.6 4.6 4.5 5.2 5.4 5.6 5.4 5.6 5.9 6.0 6.3 5.6 5.1 4.7 4.7 5.0 4.3 4.6 4.1 2.5 2.5 2.7 2.9 2.3 2.8 1.6 2.3 2.2 1.4 2.2 4.0
5.0 4.7 6.5 6.5 4.0 0.2 1.4 -0.2 -0.6 -0.2 -0.9 -0.0 0.3 -0.7 0.4 1.5 2.5 1.3 2.0 3.0 3.4 4.0 4.8 4.7 4.5 4.3 4.0 4.0 4.1 4.2 5.1 4.3 3.5 3.4 3.6 3.6 4.1 2.4 2.4 2.4 1.8 2.3 2.6 4.4
-0.2 6.5 6.5 6.5 0.8 1.3 1.0 -2.5 -4.5 -0.7 -0.9 -1.7 -1.8 -0.1 -1.2 -1.6 0.5 -1.7 0.6 0.8 -1.3 1.2 1.8 2.4 3.0 3.2 3.3 2.8 3.4 3.9 4.6 4.5 4.5 4.4 4.2 4.3 4.5 2.7 3.0 2.3 2.2 4.2 4.1 4.2
Wind_Speed
5 6 15 18 21 19 4 3 11 2 6 7 18 8 3 5 7 9 7 8 8 8 6 8 8 6 8 8 7 6 8 6 6 7 6 6 8 6 7 10 15 17 14 16
3 7 14 11 13 19 17 15 6 5 8 8 9 12 3 5 5 5 10 9 8 6 8 10 9 10 10 6 6 7 6 6 5 3 3 3 3 3 4 9 12 16 17 16
6 7 16 11 14 17 13 24 14 2 2 1 7 2 5 4 7 10 12 10 11 10 8 8 11 11 9 9 8 8 7 7 5 4 3 3 4 4 3 3 4 8 15 17
6 6 12 14 10 9 14 13 19 13 4 8 5 5 4 3 6 9 9 10 10 10 11 9 11 10 8 8 8 9 9 8 6 4 3 3 3 4 3 4 4 4 13 15
6 9 14 9 5 6 11 0 18 18 10 2 5 3 3 7 4 7 8 9 10 11 11 10 10 9 9 8 8 8 9 10 8 7 5 3 2 1 2 1 5 4 6 11
9 5 4 6 18 11 6 10 4 15 12 10 10 13 4 4 3 6 8 10 10 11 12 12 10 10 10 9 9 8 8 9 9 6 6 5 2 2 2 1 3 3 2 3
10 3 5 8 8 6 10 12 11 12 13 14 16 7 4 6 8 10 12 11 10 10 12 12 12 12 12 12 11 9 10 10 8 7 7 6 4 2 5 4 4 4 3 3
5 6 8 8 5 6 7 5 8 7 13 16 11 10 4 8 11 13 13 11 12 12 10 11 12 10 11 11 12 11 10 9 9 8 7 5 4 1 3 4 3 4 4 4
4 4 2 7 3 5 5 2 6 3 4 14 5 4 5 9 11 11 12 13 12 11 10 11 11 11 10 11 11 10 10 9 10 8 7 7 6 5 4 4 3 3 4 3
5 6 6 4 4 5 4 5 1 2 5 4 4 3 2 11 11 11 11 10 9 9 10 10 11 11 10 11 10 11 10 9 8 8 7 6 6 6 5 4 4 6 5 5
4 2 4 6 7 4 6 4 5 3 0 3 5 2 9 8 10 12 11 11 9 9 9 9 9 10 11 11 12 11 12 12 11 9 8 7 6 6 5 4 4 3 5 6
3 0 3 1 1 4 3 11 2 3 4 4 4 2 6 10 11 11 11 11 10 10 8 9 10 10 11 12 12 12 12 11 11 10 8 7 7 7 6 5 6 6 5 4
6 3 3 3 1 5 5 16 7 3 1 4 2 3 5 10 11 10 10 9 9 10 10 9 10 10 10 11 11 11 11 12 12 11 9 9 9 9 8 7 8 7 7 6
5 6 5 4 2 2 5 16 16 2 2 4 4 12 9 10 11 10 10 9 9 10 11 10 10 9 9 10 11 11 11 11 11 10 10 10 10 9 9 8 8 7 7 8
3 3 8 8 9 13 15 15 16 18 6 3 7 11 6 7 8 9 9 9 10 11 12 12 12 10 9 10 10 11 10 11 11 10 10 10 10 10 9 9 8 9 8 7
5 2 4 3 8 15 14 17 15 13 11 11 11 10 7 8 8 10 10 10 11 11 12 12 12 12 12 13 11 12 11 10 10 10 10 10 11 12 10 9 9 9 10 8
4 1 2 2 6 8 6 11 10 7 11 4 4 3 7 7 9 9 8 9 10 10 11 12 11 11 11 10 12 10 10 9 9 9 10 10 11 10 11 11 10 10 10 9
3 1 2 2 3 4 1 5 6 11 9 9 6 6 5 3 4 6 8 7 8 8 9 9 9 10 10 10 10 9 8 9 9 9 10 10 11 11 11 10 10 10 9 10
4 2 3 3 2 2 1 4 4 4 3 6 6 6 6 7 4 3 8 7 7 8 7 7 8 9 10 11 11 10 9 9 10 11 10 11 10 10 11 11 12 9 9 9
5 4 3 2 4 1 3 4 4 3 2 4 4 5 9 11 5 2 8 7 7 7 7 8 10 9 9 10 10 10 10 10 11 12 12 11 10 10 10 10 11 10 9 10
5 4 3 3 2 2 3 6 1 2 1 5 5 5 5 3 3 8 7 6 6 6 7 7 8 8 9 9 9 9 10 10 11 11 11 10 10 10 9 10 9 10 10 10
1 2 2 2 3 2 2 3 5 2 2 2 3 4 5 6 7 7 7 7 7 7 8 8 7 8 8 8 10 10 8 10 11 11 11 10 10 9 8 9 8 9 9 9
3 4 2 4 3 1 1 4 3 3 3 3 1 2 4 5 5 7 7 7 6 7 7 5 4 6 7 6 7 9 11 11 11 10 10 10 10 9 8 9 9 7 8 7
3 1 1 4 3 3 3 3 3 5 4 4 4 3 4 5 6 6 5 5 6 6 7 6 6 6 7 7 9 7 9 10 9 10 10 9 8 10 9 7 7 6 6 6
3 1 2 4 5 5 3 5 4 2 2 3 4 4 5 3 6 4 5 5 5 5 5 5 4 5 6 7 7 7 9 9 9 9 9 9 8 8 8 8 7 7 6 8
4 5 2 4 6 4 6 4 2 3 4 5 4 4 4 3 7 3 6 5 3 6 4 5 5 5 6 6 8 8 7 8 9 9 8 8 7 7 8 8 8 13 14 17
Wind_Direction
17 240 222 225 216 225 73 133 240 220 210 169 212 201 199 199 160 144 140 141 119 97 69 55 59 57 87 50 75 77 113 110 127 139 157 170 171 177 179 180 181 181 176 167
322 271 265 263 251 234 228 248 265 244 198 178 209 206 92 38 56 359 146 138 129 108 73 60 55 57 51 66 55 67 72 86 98 105 140 151 157 152 170 177 178 180 176 170
294 296 331 306 276 254 225 221 220 277 169 44 133 229 184 62 64 51 56 80 77 84 75 62 62 53 39 44 38 60 57 61 69 89 112 90 88 84 91 138 171 187 180 172
272 344 348 334 246 250 243 215 228 214 278 203 183 215 203 136 89 54 43 59 73 70 63 51 54 44 33 29 39 52 57 56 47 52 109 137 146 148 169 165 173 167 183 178
277 329 342 316 277 304 241 150 206 219 207 319 194 138 157 134 147 112 65 60 60 62 65 52 46 41 34 29 35 39 54 45 24 37 47 101 114 73 51 76 159 159 171 183
277 286 339 329 299 273 309 189 268 208 208 230 196 201 218 186 159 125 84 59 53 59 57 49 43 42 35 30 32 37 44 41 30 31 44 57 121 137 144 162 172 183 187 178
325 7 1 1 335 325 19 187 212 204 202 222 187 206 109 14 54 110 104 82 53 44 51 45 38 34 30 26 26 32 32 35 25 24 35 48 27 237 202 204 203 180 173 183
329 330 12 352 27 312 309 311 198 220 191 195 186 187 139 84 73 78 73 73 64 47 39 42 38 36 31 26 23 25 30 32 21 22 16 16 13 317 232 222 214 212 198 193
324 281 35 42 49 360 341 307 342 320 300 187 111 50 89 105 84 72 74 63 52 44 37 33 30 32 28 25 21 19 21 26 23 15 12 10 1 11 351 270 217 225 218 208
278 293 21 29 10 20 58 337 330 209 188 146 27 86 104 154 120 95 74 58 51 46 39 32 28 23 23 21 18 23 21 25 18 14 6 4 349 346 338 324 265 228 233 218
247 275 346 45 22 339 354 31 328 269 88 114 131 80 308 130 115 98 83 70 58 47 40 32 26 23 20 20 19 17 15 16 12 7 358 354 352 343 335 322 324 268 236 215
284 254 341 89 219 195 90 354 291 319 25 51 68 55 12 83 87 85 77 75 69 58 47 37 27 22 23 19 15 13 10 9 5 357 355 352 357 352 349 336 350 352 298 240
338 20 329 334 290 42 34 354 310 276 293 7 95 166 73 69 70 74 78 61 51 48 49 42 29 23 19 16 13 8 7 3 357 351 358 5 6 1 352 346 351 339 327 278
44 17 53 99 202 321 17 9 11 320 36 117 35 119 91 76 71 64 62 59 54 46 31 35 30 22 17 14 9 4 3 359 354 355 359 3 359 349 345 345 347 343 333 314
75 104 101 120 101 70 46 27 19 44 35 53 117 83 68 57 64 60 59 54 47 40 33 28 19 15 12 9 6 2 358 355 351 356 3 360 351 341 341 346 344 344 331 326
357 165 156 133 113 74 54 32 30 27 18 56 65 52 34 57 63 53 43 42 40 32 25 24 17 13 9 4 1 356 352 352 352 358 358 353 350 347 342 342 342 347 337 342
348 289 219 227 256 263 19 5 41 53 40 10 57 29 13 55 53 37 38 38 29 22 15 15 10 7 2 356 352 347 344 347 355 357 353 350 350 341 338 339 343 347 337 334
320 262 36 267 7 48 134 12 81 76 38 28 49 23 7 355 83 57 21 29 18 12 5 5 1 357 352 346 349 342 346 354 357 357 352 348 344 341 335 336 339 338 332 327
54 95 60 97 53 182 147 14 341 354 47 18 353 351 340 315 253 96 28 19 7 355 353 345 355 355 349 349 347 345 351 354 357 355 348 343 339 334 332 333 330 322 320 315
17 81 98 63 94 89 241 334 330 291 262 5 358 346 340 336 180 96 357 356 357 350 350 344 350 343 349 349 347 348 353 353 355 347 338 333 333 331 324 319 320 315 307 302
343 359 66 12 100 293 265 305 317 243 10 341 347 338 343 358 323 311 325 342 350 343 349 352 346 337 341 345 341 352 351 355 340 336 333 331 332 326 318 322 313 315 309 304
239 51 341 340 52 356 10 354 139 240 305 312 337 325 318 316 314 317 325 333 339 339 346 351 341 329 335 344 341 340 343 338 338 333 331 331 330 328 324 325 316 318 310 305
18 173 215 164 213 258 276 180 246 176 193 266 187 282 302 292 304 317 319 322 325 332 327 323 328 324 328 336 337 329 327 338 337 334 332 330 329 320 337 327 326 323 324 323
305 99 197 34 300 252 265 280 220 190 222 252 233 251 286 267 290 294 301 312 315 315 316 328 338 336 325 331 331 316 321 331 334 331 331 330 327 345 334 331 326 319 316 324
202 95 199 268 293 311 277 233 211 223 242 264 280 239 237 249 284 275 295 300 292 296 300 318 319 317 307 318 313 314 329 328 332 331 338 330 337 345 332 332 314 310 303 307
184 198 131 238 229 169 252 259 229 228 253 242 212 285 268 215 260 205 262 261 255 283 299 318 312 309 303 312 308 310 324 335 329 330 333 324 338 327 342 329 318 320 321 321